Location: Brachbach
(49.1847°N, 9.7240°E)
Time: 05:56:35
(UTC+00:00)

Cosmos 2219 Rocket - Pass Details

Date: 21 August 2024
Orbit: 826 x 846 km, 71.0° (Epoch: 16 September)

Event Time Altitude Azimuth Distance (km) Brightness Sun altitude
Exits shadow 20:53:18 12° 77° (ENE) 2,325 4.2 -20.7°
Drops below altitude 10° 20:54:16 10° 67° (ENE) 2,476 4.5 -20.8°
Sets 20:57:58 0° 43° (NE) 3,418 5.5 -21.1°
